Amsterdam, Netherlands

9:46 PM CET on December 06, 2019 (GMT +0100)
Schiphol

Weather History for EHAM - October, 2019

Change the Weather History Date:

Tuesday, October 8, 2019

  Actual Average Record
Temperature  
Mean Temperature 56 °F -  
Max Temperature 60 °F 54 °F 64 °F (1997)
Min Temperature 53 °F 43 °F 39 °F (2002)
Degree Days  
Heating Degree Days 8    
Growing Degree Days 6 (Base 50)    
Moisture  
Dew Point 52 °F    
Average Humidity 85    
Maximum Humidity 100    
Minimum Humidity 64    
Precipitation  
Precipitation 0.04 in - - ()
Sea Level Pressure  
Sea Level Pressure 29.70 in    
Wind  
Wind Speed 13 mph ()    
Max Wind Speed 18 mph    
Max Gust Speed -    
Visibility 6.4 miles    
Events Rain    
Averages and records for this station are not official NWS values.
T = Trace of Precipitation, MM = Missing Value Source: Averaged Metar Reports

Daily Weather History Graph

Daily Weather History Graph

Search for Another Location

Airport or City:

Astronomy

Oct. 08, 2019 Rise Set
Actual Time 7:53 AM CEST 7:02 PM CEST
Civil Twilight 7:19 AM CEST 7:36 PM CEST
Nautical Twilight 6:39 AM CEST 8:16 PM CEST
Astronomical Twilight 5:59 AM CEST 8:55 PM CEST
Moon 5:40 PM CEST (10/8) 1:35 AM CEST (10/8)
Length of Visible Light 12h 17m
Length of Day
11h 09m
Waxing Gibbous, 75% of the Moon is Illuminated
Oct 8
Waxing Gibbous
Oct 13
Full
Oct 21
Last Quarter
Oct 28
New
Nov 4
First Quarter

Hourly Weather History & Observations

Time (CEST) Temp. Dew Point Humidity Pressure Visibility Wind Dir Wind Speed Gust Speed Precip Events Conditions
12:00 AM 53 °F 51 °F 91% 29.85 in 3 mi South 13.4 mph - - Rain Light Rain
12:25 AM 53.6 °F 51.8 °F 94% 29.83 in 3.1 mi South 12.7 mph - N/A   Light Drizzle
12:55 AM 53.6 °F 51.8 °F 94% 29.83 in 1.9 mi South 13.8 mph - N/A   Drizzle
1:00 AM 53 °F 52 °F 97% 29.82 in 2 mi South 13.4 mph - - Rain Light Drizzle
1:25 AM 53.6 °F 51.8 °F 94% 29.80 in 1.9 mi South 13.8 mph - N/A   Drizzle
1:55 AM 53.6 °F 53.6 °F 100% 29.77 in 2.2 mi South 13.8 mph - N/A Rain Rain
2:25 AM 53.6 °F 53.6 °F 100% 29.77 in 2.2 mi South 13.8 mph - N/A Rain Rain
2:55 AM 55.4 °F 53.6 °F 94% 29.77 in 4.3 mi SSW 18.4 mph - N/A Rain Light Rain
3:00 AM 54 °F 53 °F 97% 29.77 in 3 mi SSW 17.9 mph - - Rain Heavy Rain
3:25 AM 55.4 °F 53.6 °F 94% 29.74 in 5.6 mi SSW 17.3 mph - N/A Rain Light Rain
3:55 AM 55.4 °F 53.6 °F 94% 29.74 in 3.1 mi SSW 16.1 mph - N/A Rain Light Rain
4:00 AM 54 °F 53 °F 97% 29.75 in 3 mi SSW 17.9 mph - - Rain Rain
4:25 AM 55.4 °F 53.6 °F 94% 29.74 in 4.3 mi SW 15.0 mph - N/A Rain Light Rain
4:55 AM 55.4 °F 53.6 °F 94% 29.74 in 4.3 mi SW 16.1 mph - N/A Rain Light Rain
5:00 AM 55 °F 54 °F 96% 29.74 in 3 mi WSW 13.4 mph - - Rain Heavy Drizzle
5:25 AM 55.4 °F 51.8 °F 88% 29.74 in 4.3 mi WSW 12.7 mph - N/A Rain Light Rain
5:55 AM 53.6 °F 51.8 °F 94% 29.71 in 6.2 mi SW 10.4 mph - N/A Rain Light Rain
6:00 AM 54 °F 52 °F 90% 29.72 in 15 mi SW 8.9 mph - - Rain Light Rain
6:25 AM 53.6 °F 51.8 °F 94% 29.71 in 6.2 mi SSW 9.2 mph - N/A   Partly Cloudy
6:55 AM 55.4 °F 53.6 °F 94% 29.71 in 6.2 mi SSW 9.2 mph - N/A   Partly Cloudy
7:00 AM 55 °F 53 °F 92% 29.71 in 14 mi SSW 11.2 mph - - Rain Rain
7:25 AM 55.4 °F 53.6 °F 94% 29.68 in 6.2 mi SSW 10.4 mph - N/A   Partly Cloudy
7:55 AM 55.4 °F 53.6 °F 94% 29.68 in 6.2 mi SW 10.4 mph - N/A   Partly Cloudy
8:25 AM 55.4 °F 53.6 °F 94% 29.68 in 6.2 mi SSW 10.4 mph - N/A   Partly Cloudy
8:55 AM 55.4 °F 53.6 °F 94% 29.68 in 6.2 mi SW 11.5 mph - N/A   Scattered Clouds
9:00 AM 56 °F 54 °F 92% 29.71 in 10 mi SW 11.2 mph - -   Partly Cloudy
9:25 AM 57.2 °F 55.4 °F 94% 29.68 in 6.2 mi SSW 10.4 mph - N/A   Partly Cloudy
9:55 AM 57.2 °F 55.4 °F 94% 29.68 in 6.2 mi SSW 11.5 mph - N/A   Partly Cloudy
10:25 AM 57.2 °F 55.4 °F 94% 29.71 in 6.2 mi SW 10.4 mph - N/A   Scattered Clouds
10:55 AM 59.0 °F 55.4 °F 88% 29.71 in 6.2 mi SW 8.1 mph - N/A   Scattered Clouds
11:25 AM 59.0 °F 55.4 °F 88% 29.68 in 6.2 mi WSW 8.1 mph - N/A   Partly Cloudy
11:55 AM 59.0 °F 53.6 °F 82% 29.71 in 6.2 mi West 15.0 mph - N/A   Partly Cloudy
12:00 PM 60 °F 53 °F 72% 29.71 in 9 mi West 13.4 mph - -   Partly Cloudy
12:25 PM 59.0 °F 53.6 °F 82% 29.68 in 6.2 mi West 12.7 mph - N/A   Partly Cloudy
12:55 PM 59.0 °F 51.8 °F 77% 29.68 in 6.2 mi WSW 13.8 mph - N/A   Partly Cloudy
1:00 PM 59 °F 52 °F 71% 29.70 in 9 mi West 13.4 mph - -   Partly Cloudy
1:25 PM 59.0 °F 51.8 °F 77% 29.68 in 6.2 mi WSW 15.0 mph - N/A   Partly Cloudy
1:55 PM 59.0 °F 51.8 °F 77% 29.68 in 6.2 mi WSW 13.8 mph - N/A   Partly Cloudy
2:00 PM 60 °F 52 °F 66% 29.69 in 9 mi WSW 15.7 mph - -   Partly Cloudy
2:25 PM 60.8 °F 51.8 °F 72% 29.68 in 6.2 mi WSW 16.1 mph - N/A   Partly Cloudy
2:55 PM 60.8 °F 51.8 °F 72% 29.68 in 6.2 mi WSW 16.1 mph - N/A   Partly Cloudy
3:00 PM 60 °F 51 °F 64% 29.68 in 11 mi WSW 17.9 mph - -   Partly Cloudy
3:25 PM 59.0 °F 50.0 °F 72% 29.65 in 6.2 mi WSW 16.1 mph - N/A   Partly Cloudy
3:55 PM 59.0 °F 51.8 °F 77% 29.65 in 6.2 mi WSW 15.0 mph - N/A   Partly Cloudy
4:25 PM 60.8 °F 51.8 °F 72% 29.65 in 6.2 mi WSW 13.8 mph - N/A   Partly Cloudy
4:55 PM 60.8 °F 51.8 °F 72% 29.65 in 6.2 mi SW 16.1 mph - N/A   Partly Cloudy
5:00 PM 60 °F 52 °F 67% 29.66 in 10 mi WSW 15.7 mph - -   Partly Cloudy
5:25 PM 59.0 °F 51.8 °F 77% 29.65 in 6.2 mi WSW 16.1 mph - N/A   Partly Cloudy
5:55 PM 59.0 °F 51.8 °F 77% 29.65 in 6.2 mi SW 16.1 mph - N/A   Partly Cloudy
6:00 PM 59 °F 52 °F 71% 29.66 in 10 mi SW 15.7 mph - -   Partly Cloudy
6:25 PM 59.0 °F 51.8 °F 77% 29.65 in 6.2 mi SW 15.0 mph - N/A   Partly Cloudy
6:55 PM 57.2 °F 51.8 °F 82% 29.65 in 6.2 mi SW 13.8 mph - N/A   Partly Cloudy
7:25 PM 55.4 °F 51.8 °F 88% 29.65 in 6.2 mi SW 12.7 mph - N/A   Partly Cloudy
7:55 PM 55.4 °F 51.8 °F 88% 29.65 in 6.2 mi SW 11.5 mph - N/A   Partly Cloudy
8:00 PM 56 °F 51 °F 78% 29.66 in 10 mi SW 11.2 mph - -   Partly Cloudy
8:25 PM 55.4 °F 50.0 °F 82% 29.65 in 6.2 mi SSW 10.4 mph - N/A   Partly Cloudy
8:55 PM 53.6 °F 50.0 °F 88% 29.65 in 6.2 mi SSW 9.2 mph - N/A   Partly Cloudy
9:00 PM 54 °F 50 °F 83% 29.66 in 10 mi SSW 8.9 mph - -   Partly Cloudy
9:25 PM 55.4 °F 51.8 °F 88% 29.65 in 6.2 mi SSW 12.7 mph - N/A Rain Light Rain Showers
9:55 PM 55.4 °F 51.8 °F 88% 29.65 in 6.2 mi SW 16.1 mph - N/A Rain Light Rain Showers
10:00 PM 56 °F 51 °F 80% 29.66 in 11 mi SW 17.9 mph - - Rain Light Rain
10:25 PM 53.6 °F 46.4 °F 77% 29.65 in 6.2 mi WSW 17.3 mph - N/A   Partly Cloudy
10:55 PM 53.6 °F 48.2 °F 82% 29.65 in - SW 12.7 mph - N/A   Clear
11:00 PM 53 °F 49 °F 81% 29.67 in 13 mi SW 13.4 mph - - Rain Rain
11:25 PM 53.6 °F 50.0 °F 88% 29.65 in 6.2 mi SW 11.5 mph - N/A   Scattered Clouds
11:55 PM 53.6 °F 50.0 °F 88% 29.65 in 6.2 mi SSW 9.2 mph - N/A   Partly Cloudy